This is the latest recevied weather packets stored in our database for station/object N8HKU-5. If no packets are shown the sender has not sent any weather packets the latest 10 day(s).
| Time | Temp. | Humidity | Pressure | Rain* | Wind** | Luminosity | Snow |
|---|---|---|---|---|---|---|---|
| 1778084554 | 11.11° C | 48% | 1010.3 hPa | 0 mm | - | - | - |
| 1778083954 | 11.11° C | 47% | 1010.4 hPa | 0 mm | - | - | - |
| 1778083354 | 11.11° C | 48% | 1010.1 hPa | 0 mm | - | - | - |
| 1778082754 | 11.11° C | 47% | 1010.1 hPa | 0 mm | - | - | - |
| 1778082154 | 11.11° C | 46% | 1010 hPa | 0 mm | - | - | - |
| 1778081554 | 11.67° C | 46% | 1010 hPa | 0 mm | - | - | - |
| 1778080954 | 11.11° C | 48% | 1010.1 hPa | 0 mm | - | - | - |
| 1778080354 | 11.11° C | 47% | 1009.8 hPa | 0 mm | - | - | - |
| 1778079754 | 11.11° C | 45% | 1009.6 hPa | 0 mm | - | - | - |
| 1778079154 | 11.67° C | 47% | 1009.6 hPa | 0 mm | - | - | - |
| 1778078554 | 11.67° C | 48% | 1009.4 hPa | 0 mm | - | - | - |
| 1778077954 | 11.11° C | 47% | 1009.4 hPa | 0 mm | - | - | - |
| 1778077354 | 11.11° C | 48% | 1009.4 hPa | 0 mm | - | - | - |
| 1778076755 | 10.56° C | 48% | 1009.5 hPa | 0 mm | - | - | - |
| 1778076154 | 10.56° C | 50% | 1009.4 hPa | 0 mm | - | - | - |
| 1778075554 | 10.56° C | 53% | 1009.1 hPa | 0 mm | - | - | - |
| 1778074954 | 10° C | 52% | 1009.2 hPa | 0 mm | - | - | - |
| 1778074354 | 10° C | 57% | 1009.2 hPa | 0 mm | - | - | - |
| 1778073754 | 9.44° C | 58% | 1009 hPa | 0 mm | - | - | - |
| 1778073154 | 8.89° C | 61% | 1008.9 hPa | 0 mm | - | - | - |
| 1778072555 | 8.89° C | 63% | 1008.8 hPa | 0 mm | - | - | - |
| 1778071954 | 8.89° C | 61% | 1008.7 hPa | 0 mm | - | - | - |
| 1778071354 | 8.33° C | 64% | 1008.7 hPa | 0 mm | - | - | - |
| 1778070754 | 8.33° C | 64% | 1008.5 hPa | 0 mm | - | - | - |
| 1778070154 | 7.78° C | 66% | 1008.3 hPa | 0 mm | - | - | - |
* Rain latest hour (hover to see other rain measurements)
** Current wind speed in m/s (hover to see current wind gust speed)